This demonstration page uses our WeatherBlox Daily Observations layout. Learn more.

Left ArrowRight Arrow

40.92945, -100.16068

Hourly Observations for November 4, 2015

Temp ( °F °C ) Dew Point ( °F °C ) Humidity (%) Winds ( mph kmh ) Pressure ( in mb ) Visibility ( mi km ) Precip ( " mm )
12:15 am 00:15 Clear 60 15.6 50 9.8 69 69 S 14 22 29.71 1006 10 16 N/A
12:35 am 00:35 Clear 59 15 49 9.6 70 70 S 10 17 29.71 1006 10 16 N/A
12:55 am 00:55 Clear 58 14.5 49 9.7 73 73 S 9 15 29.71 1006 10 16 N/A
1:15 am 01:15 Clear 57 13.8 49 9.6 76 76 S 7 11 29.74 1007 10 16 N/A
1:35 am 01:35 Clear 55 13 49 9.6 80 80 SE 7 11 29.74 1007 10 16 N/A
1:55 am 01:55 Clear 56 13.4 50 9.9 80 80 SE 7 11 29.74 1007 10 16 N/A
2:15 am 02:15 Clear 56 13.4 50 10 80 80 SE 8 13 29.74 1007 10 16 N/A
2:35 am 02:35 Clear 55 12.9 50 10.1 83 83 SE 8 13 29.74 1007 10 16 N/A
2:55 am 02:55 Clear 56 13.4 51 10.3 82 82 SSE 7 11 29.74 1007 10 16 N/A
3:15 am 03:15 Clear 55 12.6 50 10.2 85 85 SSE 8 13 29.74 1007 10 16 N/A
3:35 am 03:35 Clear 54 12.1 50 10 87 87 SE 7 11 29.74 1007 10 16 N/A
3:55 am 03:55 Clear 54 12 50 10.1 88 88 SSE 7 11 29.74 1007 10 16 N/A
4:15 am 04:15 Clear 53 11.7 50 9.8 88 88 SE 6 9 29.74 1007 10 16 N/A
4:35 am 04:35 Clear 52 11.1 49 9.5 90 90 SE 7 11 29.74 1007 10 16 N/A
4:55 am 04:55 Clear 53 11.4 50 10 91 91 SE 7 11 29.74 1007 10 16 N/A
5:15 am 05:15 Clear 51 10.7 49 9.2 91 91 SE 6 9 29.74 1007 10 16 N/A
5:35 am 05:35 Clear 47 8.5 45 7.2 92 92 E 7 11 29.77 1008 10 16 N/A
5:55 am 05:55 Clear 47 8.6 46 7.6 94 94 ESE 7 11 29.77 1008 10 16 N/A
6:15 am 06:15 Clear 50 10 49 9.2 95 95 ESE 7 11 29.77 1008 10 16 N/A
6:35 am 06:35 Clear 50 10.2 49 9.3 94 94 SE 7 11 29.77 1008 10 16 N/A
6:55 am 06:55 Clear 50 10.1 49 9.2 94 94 ESE 8 13 29.77 1008 10 16 N/A
7:15 am 07:15 Sunny 51 10.3 49 9.5 95 95 ESE 8 13 29.77 1008 10 16 N/A
7:35 am 07:35 Sunny 51 10.4 49 9.6 95 95 SE 8 13 29.77 1008 10 16 N/A
7:55 am 07:55 Sunny 52 11 50 10.2 95 95 SE 7 11 29.74 1007 10 16 N/A
8:15 am 08:15 Sunny 54 12 52 11.1 94 94 SE 8 13 29.74 1007 10 16 N/A
8:35 am 08:35 Sunny 55 12.9 53 11.9 94 94 SSE 9 15 29.74 1007 10 16 N/A
8:55 am 08:55 Sunny 57 13.7 54 12.3 91 91 S 13 20 29.74 1007 10 16 N/A
9:15 am 09:15 Sunny 58 14.5 55 12.6 88 88 S 14 22 29.74 1007 10 16 N/A
9:35 am 09:35 Sunny 59 15.1 55 12.6 85 85 S 15 24 29.74 1007 10 16 N/A
9:55 am 09:55 Sunny 61 16 55 12.6 80 80 S 13 20 29.74 1007 10 16 N/A
10:15 am 10:15 Sunny 62 16.6 55 12.7 78 78 SSW 14 22 29.74 1007 10 16 N/A
10:35 am 10:35 Sunny 63 17.2 55 12.5 74 74 S 16 26 29.74 1007 10 16 N/A
10:55 am 10:55 Sunny 64 18 54 12.4 70 70 S 15 24 29.68 1005 10 16 N/A
11:15 am 11:15 Sunny 66 18.7 53 11.8 64 64 S 14 22 29.68 1005 10 16 N/A
11:35 am 11:35 Sunny 67 19.6 54 12.2 62 62 S 16 26 29.68 1005 10 16 N/A
11:55 am 11:55 Sunny 68 20.2 54 12.1 60 60 S 13 20 29.68 1005 10 16 N/A
12:15 pm 12:15 Sunny 69 20.8 54 12.3 58 58 S 14 22 29.65 1004 10 16 N/A
12:35 pm 12:35 Sunny 70 21.2 54 12.2 57 57 S 21 33 29.62 1003 10 16 N/A
12:55 pm 12:55 Sunny 71 21.9 54 12.2 54 54 S 17 28 29.62 1003 10 16 N/A
1:15 pm 13:15 Sunny 73 22.6 53 11.5 50 50 S 17 28 29.62 1003 10 16 N/A
1:35 pm 13:35 Sunny 73 23 52 11.2 47 47 S 24 39 29.59 1002 10 16 N/A
1:55 pm 13:55 Sunny 74 23.1 53 11.5 48 48 S 22 35 29.59 1002 10 16 N/A
2:15 pm 14:15 Sunny 74 23.3 53 11.8 48 48 SSE 23 37 29.59 1002 10 16 N/A
2:35 pm 14:35 Sunny 74 23.3 54 12.3 50 50 S 21 33 29.59 1002 10 16 N/A
2:55 pm 14:55 Sunny 74 23.5 55 12.9 51 51 SSE 18 30 29.56 1001 10 16 N/A
3:15 pm 15:15 Sunny 74 23.1 55 13 53 53 SSE 23 37 29.59 1002 10 16 N/A
3:35 pm 15:35 Sunny 73 22.7 56 13.1 55 55 S 23 37 29.59 1002 10 16 N/A
3:55 pm 15:55 Sunny 72 22.2 56 13.1 56 56 S 24 39 29.59 1002 10 16 N/A
4:15 pm 16:15 Sunny 71 21.9 55 13 57 57 SSE 22 35 29.59 1002 10 16 N/A
4:35 pm 16:35 Sunny 71 21.5 55 13 59 59 SSE 22 35 29.59 1002 10 16 N/A
4:55 pm 16:55 Sunny 69 20.7 56 13.2 62 62 SSE 22 35 29.59 1002 10 16 N/A
5:15 pm 17:15 Sunny 68 20 56 13.1 65 65 SSE 21 33 29.62 1003 10 16 N/A
5:35 pm 17:35 Clear 67 19.2 55 13 67 67 SSE 20 31 29.62 1003 10 16 N/A
5:55 pm 17:55 Clear 66 18.7 55 13 70 70 SSE 21 33 29.62 1003 10 16 N/A
6:15 pm 18:15 Clear 65 18.5 56 13.1 71 71 SSE 22 35 29.62 1003 10 16 N/A
6:35 pm 18:35 Clear 65 18.3 56 13.1 72 72 SSE 22 35 29.62 1003 10 16 N/A
6:55 pm 18:55 Clear 65 18.3 56 13.2 72 72 SSE 18 30 29.62 1003 10 16 N/A
7:15 pm 19:15 Clear 64 18 56 13.3 74 74 SSE 17 28 29.62 1003 10 16 N/A
7:35 pm 19:35 Clear 64 17.9 56 13.4 75 75 S 25 41 29.62 1003 10 16 N/A
7:55 pm 19:55 Clear 63 17.3 55 13 76 76 S 23 37 29.62 1003 10 16 N/A
8:15 pm 20:15 Clear 63 17 55 13 77 77 S 20 31 29.62 1003 10 16 N/A
8:35 pm 20:35 Mostly Cloudy 62 16.8 56 13.1 79 79 S 18 30 29.62 1003 10 16 N/A
8:55 pm 20:55 Cloudy 63 17.1 55 13 77 77 S 29 46 29.62 1003 10 16 N/A
9:15 pm 21:15 Cloudy 63 17 55 12.7 76 76 S 25 41 29.62 1003 10 16 N/A
9:35 pm 21:35 Mostly Cloudy 63 17 55 12.8 76 76 S 24 39 29.62 1003 10 16 N/A
9:55 pm 21:55 Mostly Cloudy 62 16.8 55 13 78 78 S 24 39 29.62 1003 10 16 N/A
10:15 pm 22:15 Mostly Cloudy 62 16.5 55 13 80 80 S 20 31 29.62 1003 10 16 N/A
10:35 pm 22:35 Mostly Cloudy with Nearby Thunderstorms 62 16.4 56 13.3 82 82 SSW 20 31 29.65 1004 10 16 N/A
10:55 pm 22:55 Cloudy with Strong Thunderstorms 59 15 57 13.8 93 93 SSW 18 30 29.68 1005 3 5 0.15 3.81
11:15 pm 23:15 Cloudy with Light Rain 59 15 57 14 94 94 SSW 15 24 29.65 1004 7 11 0.02 0.51
11:35 pm 23:35 Cloudy with Light Rain 59 15 57 14.1 94 94 SSW 10 17 29.65 1004 10 16 0.03 0.76
11:55 pm 23:55 Partly Cloudy 58 14.2 56 13.3 94 94 S 6 9 29.65 1004 10 16 0.03 0.76

Powered by AerisWeather